Location: Eitze
(52.9840°N, 9.6894°E)
Time: 22:07:59
(UTC+00:00)

Cosmos 1743 - Pass Details

Date: 19 May 2025
Orbit: 432 x 442 km, 82.5° (Epoch: 15 June)

Event Time Altitude Azimuth Distance (km) Brightness Sun altitude
Rises 20:13:28 0° 345° (NNW) 2,460 7.4 -6.9°
Reaches altitude 10° 20:15:34 10° 341° (NNW) 1,582 6.4 -7.1°
Maximum altitude 20:18:56 54° 264° (W) 551 3.1 -7.4°
Drops below altitude 10° 20:22:16 10° 186° (S) 1,562 4.7 -7.8°
Enters shadow 20:23:33 - 183° (S) 2,100 5.4 -7.9°
